ATL8189 OEJN-EHAM

Flight info

Callsign ATL8189
Flight time N/A
Altitude 30000
Route BOMOX M686 OTEMO T55 NABED/N0483F320 T55 KUNKI L321 REXUM M872 SOBAX DCT NOGLI L551 ANTAR DCT RIGRO DCT EVIVI DCT OKANA DCT RAVAK DCT BGD DCT BABIT DCT SOGMO DCT SASAL DCT BARUG DCT DEXIT DCT RUDNO DCT MAPOX DCT BIGGE DCT AMSAN T281 NORKU
Aircraft B752/M-SDE3FGHIM3RWXY/LB1

Departure

Time 2026-05-04 11:08
Airport King Abdulaziz International Airport (OEJN)

Arrival

Time N/A
Airport Amsterdam Airport Schiphol (EHAM)
Time Latitude Longitude Altitude Speed Heading
2026-05-04 10:39 21.67182 39.15651 59 ft 0 kts 250°
2026-05-04 10:58 21.67184 39.15657 58 ft 2 kts 250°
2026-05-04 10:58 21.67189 39.15672 58 ft 2 kts 250°
2026-05-04 10:58 21.67194 39.15686 58 ft 1 kts 250°
2026-05-04 10:58 21.67198 39.15697 58 ft 2 kts 242°
2026-05-04 10:59 21.67207 39.15710 58 ft 2 kts 225°
2026-05-04 10:59 21.67219 39.15720 58 ft 2 kts 210°
2026-05-04 10:59 21.67233 39.15727 58 ft 2 kts 195°
2026-05-04 10:59 21.67247 39.15729 58 ft 2 kts 180°
2026-05-04 11:00 21.67263 39.15728 58 ft 2 kts 166°
2026-05-04 11:01 21.67272 39.15725 58 ft 0 kts 160°
2026-05-04 11:02 21.67271 39.15725 58 ft 0 kts 160°
2026-05-04 11:05 21.66079 39.16344 58 ft 10 kts 79°
2026-05-04 11:06 21.66113 39.16430 58 ft 12 kts 71°
2026-05-04 11:06 21.66127 39.16476 58 ft 1 kts 39°
2026-05-04 11:06 21.66146 39.16477 58 ft 4 kts 355°
2026-05-04 11:06 21.66162 39.16473 58 ft 0 kts 339°
2026-05-04 11:08 21.72915 39.13885 1877 ft 215 kts 339°
2026-05-04 11:10 21.83303 39.09740 5355 ft 236 kts 340°
2026-05-04 11:12 21.94735 39.02708 7178 ft 286 kts 315°
2026-05-04 11:12 21.96154 39.01133 7692 ft 289 kts 315°
2026-05-04 11:12 21.97563 38.99612 8268 ft 290 kts 316°
2026-05-04 11:12 21.99021 38.98065 8871 ft 291 kts 316°
2026-05-04 11:13 22.00502 38.96507 9444 ft 294 kts 316°
2026-05-04 11:13 22.01965 38.94978 10043 ft 295 kts 316°
2026-05-04 11:13 22.03471 38.93408 10300 ft 309 kts 315°
2026-05-04 11:13 22.05080 38.91732 10388 ft 328 kts 315°
2026-05-04 11:14 22.06792 38.89950 10500 ft 345 kts 315°
2026-05-04 11:14 22.08572 38.88098 10557 ft 363 kts 315°
2026-05-04 11:14 22.10422 38.86173 10585 ft 379 kts 315°
2026-05-04 11:16 22.24154 38.71867 13303 ft 398 kts 314°
2026-05-04 11:16 22.26185 38.69746 13692 ft 400 kts 314°
2026-05-04 11:16 22.28193 38.67650 14107 ft 401 kts 314°
2026-05-04 11:17 22.30204 38.65549 14451 ft 404 kts 314°
2026-05-04 11:17 22.32244 38.63417 14877 ft 406 kts 314°